Flag for Canada Weather past 2 weeks in Kingston, Ontario, Canada

Now
36 °F

Clear.


Feels Like: 32 °F
Forecast: 33 / 58 °F
Wind: 5 mph from East

Location: Kingston


UV Index: 3 (Moderate)

Visibility: 15 mi


Pressure: 30.07 "Hg

Humidity: 81%

Dew point: 30 °F

Location of KingstonLocation

Historic Weather in Kingston

°F

Kingston temperature yesterday

Maximum temperature yesterday: 54 °F (at 3:00 PM)
Minimum temperature yesterday: 32 °F (at 6:00 AM)
Average temperature yesterday: 44 °F

Past Weeks' High & Low Weather Summary

 TemperatureHumidityPressure
High66 °F (Apr 13, 6:00 PM)100% (Apr 14, 6:00 PM)30.70 "Hg (Apr 14, 6:00 PM)
Low19 °F (Apr 16, 6:00 AM)24% (Apr 24, 3:00 PM)29.49 "Hg (Apr 22, 4:00 PM)
Average43 °F68%30.05 "Hg
* Reported Apr 9 11:00 PM — Apr 24 11:00 PM, Kingston, Weather by CustomWeather, © 2014

Note: Actual official high and low records may vary slightly from our data, if they occured in-between our weather recording intervals... More about our weather records

Advertising

Historic Weather Conditions — Data for Previous 24 hours

 ConditionsComfort  
Time TempWeatherWind HumidityBarometerVisibility
11:00 PM
Apr 24
36 °FClear.5 mph81%30.07 "Hg15 mi
10:00 PM37 °FClear.6 mph75%30.08 "Hg15 mi
9:00 PM43 °FPassing clouds.2 mph57%30.07 "Hg15 mi
8:00 PM43 °FPassing clouds.2 mph61%30.06 "Hg15 mi
7:00 PM45 °FPassing clouds.7 mph66%30.06 "Hg15 mi
6:00 PM48 °FScattered clouds.8 mph54%30.05 "Hg15 mi
5:00 PM52 °FPassing clouds.6 mph41%30.05 "Hg15 mi
4:00 PM54 °FPassing clouds.13 mph26%30.04 "Hg15 mi
3:00 PM54 °FScattered clouds.12 mph24%30.06 "Hg15 mi
2:00 PM50 °FScattered clouds.12 mph25%30.07 "Hg15 mi
1:00 PM48 °FScattered clouds.14 mph27%30.08 "Hg15 mi
12:00 PM46 °FPartly sunny.14 mph34%30.08 "Hg15 mi
11:00 AM45 °FScattered clouds.17 mph34%30.09 "Hg15 mi
10:00 AM41 °FPassing clouds.23 mph39%30.09 "Hg15 mi
9:00 AM39 °FSunny.21 mph39%30.10 "Hg15 mi
8:00 AM37 °FSunny.18 mph41%30.09 "Hg15 mi
7:00 AM34 °FClear.10 mph51%30.07 "Hg15 mi
6:00 AM32 °FClear.8 mph55%30.05 "Hg15 mi
Weather by CustomWeather, © 2014

See weather overview